Find Starlink 1707

NORAD ID: 46359 Int'l Des: 2020-062 Owner: SPXS Country: US Constellation: starlink operational
LEOCIRCULAR

Current View

Loading 3D Globe...

About Starlink 1707

Description loading...

Upcoming Passes

Passes for default location (London). Set your location on the main map for personalized predictions.

Altitude History

Loading altitude history...

Two-Line Element Set

1 46359U 20062AL 26150.25002315 .00249156 00000-0 10663-2 0 9994
2 46359 53.0184 228.9925 0007062 350.2587 253.0290 15.83898343 5954
Epoch: May 30, 2026 • Age: 3 hours

Current Status

Altitude 324.3 km
Velocity 7.71 km/s
Sub-Earth Point 20.67°N, 14.35°E
Launch Date Sep 3, 2020
Age 5.7 years
Type internet

Technical Details

Classification Payload
Mass 260.00 kg
Dry Mass 248.00 kg
Total Mass 260.00 kg
Length 0.20 m
Diameter 2.80 m
Span 9.00 m
Shape Box + pan
Manufacturer SPXS
Bus Type Starlink
Phase Status In Orbit
Owner/State SPXS/US

Most Searched